TimeEST,TemperatureF,Dew PointF,Humidity,Sea Level PressureIn,VisibilityMPH,Wind Direction,Wind SpeedMPH,Gust SpeedMPH,PrecipitationIn,Events,Conditions,WindDirDegrees,DateUTC
12:15 AM,46.9,25.2,43,30.10,10.0,South,4.6,-,N/A,,Scattered Clouds,170,2013-01-01 05:15:00
12:35 AM,46.9,25.3,43,30.10,10.0,SSW,5.8,-,N/A,,Overcast,200,2013-01-01 05:35:00
12:55 AM,46.9,25.3,43,30.08,10.0,South,6.9,-,N/A,,Overcast,180,2013-01-01 05:55:00
1:15 AM,46.6,25.7,44,30.07,10.0,SSW,8.1,-,N/A,,Overcast,200,2013-01-01 06:15:00
1:35 AM,46.8,25.7,44,30.06,10.0,South,6.9,-,N/A,,Overcast,190,2013-01-01 06:35:00
1:55 AM,46.4,25.7,44,30.06,10.0,South,8.1,-,N/A,,Scattered Clouds,190,2013-01-01 06:55:00
2:15 AM,46.6,25.7,44,30.06,10.0,South,5.8,-,N/A,,Clear,190,2013-01-01 07:15:00
2:35 AM,46.6,26.2,45,30.06,10.0,South,4.6,-,N/A,,Light Drizzle,190,2013-01-01 07:35:00
2:55 AM,46.4,26.2,45,30.06,10.0,SSW,4.6,-,N/A,,Scattered Clouds,200,2013-01-01 07:55:00
3:15 AM,46.6,26.2,45,30.06,10.0,South,5.8,-,N/A,,Mostly Cloudy,190,2013-01-01 08:15:00
3:35 AM,46.8,26.6,45,30.06,10.0,South,6.9,-,N/A,,Overcast,190,2013-01-01 08:35:00
3:55 AM,46.9,27.0,46,30.07,10.0,SSW,6.9,-,N/A,,Overcast,200,2013-01-01 08:55:00
4:15 AM,47.7,27.3,45,30.04,10.0,South,5.8,-,N/A,,Overcast,190,2013-01-01 09:15:00
4:35 AM,46.9,27.7,47,30.05,10.0,SSW,4.6,-,N/A,,Overcast,210,2013-01-01 09:35:00
4:55 AM,46.9,28.9,50,30.05,10.0,SSW,4.6,-,N/A,,Mostly Cloudy,210,2013-01-01 09:55:00
5:15 AM,47.7,30.2,51,30.05,10.0,SSW,8.1,-,N/A,,Overcast,210,2013-01-01 10:15:00
5:35 AM,47.7,31.1,53,30.04,10.0,South,4.6,-,N/A,,Overcast,190,2013-01-01 10:35:00
5:55 AM,48.2,32.0,54,30.05,10.0,SSW,6.9,-,N/A,,Overcast,210,2013-01-01 10:55:00
6:15 AM,48.4,33.4,56,30.04,10.0,SW,9.2,-,N/A,,Overcast,220,2013-01-01 11:15:00
6:35 AM,48.6,34.2,58,30.05,10.0,SW,8.1,-,N/A,,Overcast,220,2013-01-01 11:35:00
6:55 AM,48.6,34.7,59,30.06,10.0,SW,6.9,-,N/A,,Overcast,220,2013-01-01 11:55:00
7:15 AM,48.6,35.1,60,30.07,10.0,WSW,5.8,-,N/A,,Overcast,240,2013-01-01 12:15:00
7:35 AM,47.8,34.9,61,30.07,10.0,Calm,Calm,-,N/A,,Overcast,0,2013-01-01 12:35:00
7:55 AM,46.9,32.9,58,30.09,10.0,NNW,5.8,-,N/A,,Overcast,340,2013-01-01 12:55:00
8:15 AM,46.4,33.8,62,30.09,10.0,NW,4.6,-,N/A,,Light Drizzle,310,2013-01-01 13:15:00
8:35 AM,46.2,34.2,63,30.08,10.0,SW,3.5,-,N/A,,Light Drizzle,220,2013-01-01 13:35:00
8:55 AM,45.9,36.0,68,30.08,7.0,Calm,Calm,-,N/A,Rain,Light Rain,0,2013-01-01 13:55:00
9:15 AM,44.1,39.6,84,30.08,7.0,Calm,Calm,-,0.01,Rain,Light Rain,0,2013-01-01 14:15:00
9:35 AM,43.7,40.6,89,30.10,7.0,Calm,Calm,-,0.03,Rain,Light Rain,0,2013-01-01 14:35:00
9:55 AM,43.9,40.6,88,30.09,7.0,Calm,Calm,-,0.04,Rain,Light Rain,0,2013-01-01 14:55:00
10:15 AM,44.1,41.5,91,30.09,7.0,Calm,Calm,-,N/A,Rain,Light Rain,0,2013-01-01 15:15:00
10:35 AM,44.2,41.7,91,30.09,7.0,Calm,Calm,-,0.02,Rain,Light Rain,0,2013-01-01 15:35:00
10:55 AM,44.2,41.9,91,30.08,10.0,Calm,Calm,-,0.02,,Overcast,0,2013-01-01 15:55:00
11:15 AM,45.1,42.3,90,30.07,10.0,SSW,3.5,-,N/A,Rain,Light Rain,210,2013-01-01 16:15:00
11:35 AM,46.4,43.3,89,30.06,10.0,South,3.5,-,N/A,,Overcast,190,2013-01-01 16:35:00
11:55 AM,46.9,44.6,92,30.05,7.0,Calm,Calm,-,N/A,,Light Drizzle,0,2013-01-01 16:55:00
12:15 PM,47.7,45.7,93,30.04,7.0,SSW,3.5,-,N/A,Rain,Light Rain,200,2013-01-01 17:15:00
12:35 PM,47.8,46.0,93,30.04,5.0,WSW,4.6,-,N/A,Rain,Light Rain,240,2013-01-01 17:35:00
12:55 PM,48.2,46.6,94,30.03,5.0,SSW,3.5,-,0.01,Rain,Rain,200,2013-01-01 17:55:00
1:15 PM,48.2,46.6,94,30.02,5.0,SSW,4.6,-,N/A,Rain,Light Rain,210,2013-01-01 18:15:00
1:35 PM,48.2,46.6,94,30.01,5.0,Calm,Calm,-,0.02,Rain,Light Rain,0,2013-01-01 18:35:00
1:55 PM,48.2,46.8,95,30.01,4.0,SSW,3.5,-,0.05,Rain,Light Rain,200,2013-01-01 18:55:00
2:15 PM,47.8,46.6,95,30.00,3.0,South,4.6,-,0.02,Rain,Light Rain,180,2013-01-01 19:15:00
2:35 PM,47.8,46.6,95,30.00,3.0,South,6.9,-,0.03,Rain,Light Rain,190,2013-01-01 19:35:00
2:55 PM,48.2,46.9,95,29.98,4.0,South,5.8,-,0.05,Rain,Light Rain,180,2013-01-01 19:55:00
3:15 PM,48.2,47.3,97,29.97,4.0,SSW,3.5,-,N/A,Rain,Light Rain,200,2013-01-01 20:15:00
3:35 PM,48.2,47.3,97,29.97,5.0,South,4.6,-,0.01,Rain,Light Rain,190,2013-01-01 20:35:00
3:55 PM,48.2,46.9,95,29.97,5.0,SSW,4.6,-,0.04,Rain,Rain,200,2013-01-01 20:55:00
4:15 PM,48.2,46.9,95,29.99,4.0,SSW,6.9,-,0.02,Rain,Light Rain,200,2013-01-01 21:15:00
4:35 PM,48.2,47.3,97,30.00,5.0,SW,6.9,-,0.02,Rain,Rain,220,2013-01-01 21:35:00
4:55 PM,48.2,47.3,97,29.99,5.0,SSW,4.6,-,0.03,Rain,Light Rain,210,2013-01-01 21:55:00
5:15 PM,48.4,47.5,97,30.00,5.0,SSW,4.6,-,0.02,Rain,Light Rain,210,2013-01-01 22:15:00
5:35 PM,48.2,47.3,97,30.00,4.0,SW,3.5,-,0.02,,Light Drizzle,220,2013-01-01 22:35:00
5:55 PM,48.2,47.3,97,29.99,4.0,Calm,Calm,-,0.02,,Light Drizzle,0,2013-01-01 22:55:00
6:15 PM,48.2,47.3,97,29.98,1.2,Calm,Calm,-,N/A,,Light Drizzle,0,2013-01-01 23:15:00
6:35 PM,48.2,47.3,97,29.97,1.0,Calm,Calm,-,N/A,,Light Drizzle,0,2013-01-01 23:35:00
6:55 PM,48.2,47.3,97,29.96,0.8,Calm,Calm,-,0.01,Rain,Light Rain,0,2013-01-01 23:55:00
7:15 PM,48.2,47.3,97,29.98,1.2,Calm,Calm,-,0.02,,Light Drizzle,0,2013-01-02 00:15:00
7:35 PM,48.2,47.5,97,29.99,0.8,WSW,3.5,-,0.02,,Light Drizzle,240,2013-01-02 00:35:00
7:55 PM,48.2,47.5,97,30.01,0.5,WSW,4.6,-,0.02,Rain,Light Rain,250,2013-01-02 00:55:00
8:15 PM,48.4,47.7,97,29.98,1.5,Calm,Calm,-,0.02,Rain,Light Rain,0,2013-01-02 01:15:00
8:35 PM,48.4,47.7,97,29.98,2.5,Calm,Calm,-,0.03,Rain,Light Rain,0,2013-01-02 01:35:00
8:55 PM,48.6,47.8,97,29.97,1.8,Calm,Calm,-,0.05,Rain,Light Rain,0,2013-01-02 01:55:00
9:15 PM,48.4,47.7,97,29.96,1.5,Calm,Calm,-,N/A,Rain,Light Rain,0,2013-01-02 02:15:00
9:35 PM,48.2,47.5,97,29.97,0.8,Calm,Calm,-,N/A,Rain,Light Rain,0,2013-01-02 02:35:00
9:55 PM,48.2,47.3,97,29.97,0.5,Calm,Calm,-,0.03,Rain,Light Rain,0,2013-01-02 02:55:00
10:15 PM,48.2,47.5,97,29.96,0.5,Calm,Calm,-,0.03,Rain,Light Rain,0,2013-01-02 03:15:00
10:35 PM,47.8,47.1,97,29.96,0.5,Calm,Calm,-,0.04,Rain,Light Rain,0,2013-01-02 03:35:00
10:55 PM,47.8,47.1,97,29.96,0.5,Calm,Calm,-,0.06,Rain,Rain,0,2013-01-02 03:55:00
11:15 PM,47.7,47.1,98,29.95,0.2,Calm,Calm,-,0.03,Rain,Rain,0,2013-01-02 04:15:00
11:35 PM,47.7,46.9,97,29.97,0.2,Calm,Calm,-,0.08,Rain,Light Rain,0,2013-01-02 04:35:00
11:55 PM,47.8,47.1,97,29.95,0.5,Calm,Calm,-,0.11,Rain,Light Rain,0,2013-01-02 04:55:00